Arnold Palmer Regional Airport Latrobe US
ICAO: KLBE
IATA: LBE
Category: Medium
Scheduled Services: Yes

Elevation: 1199 ft
TransAlt. 18000 ft.

Airport Communications:
ATIS:118.375
AWOS 3:118.375
CLEVELAND CNTR:124.4
CTAF:125
GND:121.8
TWR:125

KLBE Zoom In..

Runways:

(A) RW 03 length 3609 ft width 75 ft
---- / hdg 29

(B) RW 05 length 8222 ft width 100 ft
---- / hdg 55

(C) RW 21 length 3609 ft width 75 ft
---- / hdg 209

(D) RW 23 length 8222 ft width 100 ft
ILS 110.90 / hdg 235

Location; KLBE
Day. 04 / Time. 01.47 Zulu
* Altimeter: 29.99
* Temperature: 23° c. 73.4°f.
* Wind from: 000° Speed 00 kn.
Dewpoint: 19° c.
Visibility: 15 Statute Miles.
Clouds: Broken 2000 ft.

KLBE 040147Z 00000KT 15SM BKN200 23/19 A2999

Going to: --> -->


Wind - Calm.

 
 
jpsmedia worldairports.se 2020   terms of use